This demonstration page uses our WeatherBlox Daily Observations layout. Learn more.

Left ArrowRight Arrow

Hourly Observations for October 26, 2018

Temp ( °F °C ) Dew Point ( °F °C ) Humidity (%) Winds ( mph kmh ) Pressure ( in mb ) Visibility ( mi km ) Precip ( " mm )
12:05 am 00:05 Cloudy 47 8.3 45 7.2 93 93 SE 8 13 29.97 1015 9 14.48406 0 0
12:17 am 00:17 Cloudy 47 8.3 44 6.7 90 90 SE 8 13 29.97 1015 10 16.0934 0 0
12:54 am 00:54 Cloudy 47 8.3 44 6.7 90 90 S 6 9 29.94 1014 10 16.0934 0 0
1:07 am 01:07 Cloudy 47 8.3 44 6.7 90 90 SSE 6 9 29.97 1015 10 16.0934 0 0
1:22 am 01:22 Cloudy 47 8.3 44 6.7 90 90 S 5 7 29.97 1015 10 16.0934 0 0
1:54 am 01:54 Cloudy 46 7.8 44 6.7 93 93 S 5 7 29.95 1014 10 16.0934 0 0
2:54 am 02:54 Cloudy 46 7.8 44 6.7 93 93 SSE 6 9 29.93 1014 9 14.48406 0 0
3:30 am 03:30 Cloudy 46 7.8 44 6.7 93 93 S 5 7 29.94 1014 8 12.87472 0 0
3:54 am 03:54 Cloudy 46 7.8 44 6.7 93 93 S 3 6 29.92 1013 8 12.87472 0 0
4:08 am 04:08 Cloudy 46 7.8 44 6.7 93 93 Calm 29.94 1014 8 12.87472 0 0
4:54 am 04:54 Cloudy 46 7.8 44 6.7 93 93 SSE 3 6 29.91 1013 8 12.87472 0 0
5:54 am 05:54 Cloudy 46 7.8 44 6.7 93 93 SSE 3 6 29.91 1013 8 12.87472 0 0
6:30 am 06:30 Cloudy 46 7.8 44 6.7 93 93 S 5 7 29.94 1014 7 11.26538 0 0
6:54 am 06:54 Cloudy 46 7.8 44 6.7 93 93 SW 3 6 29.92 1013 8 12.87472 0 0
7:42 am 07:42 Cloudy 46 7.8 44 6.7 93 93 SW 6 9 29.94 1014 8 12.87472 0 0
7:54 am 07:54 Cloudy 46 7.8 44 6.7 93 93 SW 6 9 29.92 1013 8 12.87472 0 0
8:02 am 08:02 Cloudy 46 7.8 44 6.7 93 93 SW 6 9 29.94 1014 8 12.87472 0 0
8:54 am 08:54 Cloudy 47 8.3 44 6.7 90 90 SW 7 11 29.92 1013 10 16.0934 0 0
9:54 am 09:54 Cloudy 48 8.9 45 7.2 89 89 WSW 9 15 29.93 1013 10 16.0934 0 0
10:54 am 10:54 Cloudy 50 10 46 7.8 86 86 WSW 7 11 29.93 1013 10 16.0934 0 0
11:31 am 11:31 Cloudy 52 11.1 46 7.8 80 80 WSW 8 13 29.91 1013 10 16.0934 0 0
11:54 am 11:54 Cloudy 52 11.1 47 8.3 83 83 W 7 11 29.92 1013 10 16.0934 0 0
12:54 pm 12:54 Mostly Cloudy 55 12.8 48 8.9 77 77 SW 6 9 29.89 1012 10 16.0934 0 0
1:13 pm 13:13 Mostly Sunny 56 13.3 48 8.9 75 75 VRB 6 9 29.88 1012 10 16.0934 0 0
1:54 pm 13:54 Sunny 57 13.9 47 8.3 69 69 SW 5 7 29.86 1011 10 16.0934 0 0
2:54 pm 14:54 Sunny 62 16.7 47 8.3 58 58 W 6 9 29.84 1011 10 16.0934 0 0
3:54 pm 15:54 Sunny 63 17.2 45 7.2 52 52 WSW 7 11 29.82 1010 10 16.0934 0 0
4:54 pm 16:54 Sunny 66 18.9 40 4.4 39 39 WNW 6 9 29.81 1010 10 16.0934 0 0
5:54 pm 17:54 Sunny 63 17.2 36 2.2 37 37 NW 8 13 29.81 1010 10 16.0934 0 0
6:54 pm 18:54 Clear 60 15.6 35 1.7 39 39 NW 7 11 29.82 1010 10 16.0934 0 0
7:54 pm 19:54 Clear 51 10.6 40 4.4 66 66 N 6 9 29.83 1010 10 16.0934 0 0
8:54 pm 20:54 Mostly Cloudy 55 12.8 38 3.3 53 53 Calm 29.83 1010 10 16.0934 0 0
9:54 pm 21:54 Cloudy 54 12.2 40 4.4 59 59 WNW 3 6 29.85 1011 10 16.0934 0 0
10:54 pm 22:54 Clear 46 7.8 38 3.3 73 73 VRB 3 6 29.86 1011 10 16.0934 0 0
11:54 pm 23:54 Mostly Clear 45 7.2 37 2.8 74 74 N 3 6 29.86 1011 10 16.0934 0 0

Powered by AerisWeather